Location: Calvin Observatory
(42.9309°N, 85.5886°W)
Time: 08:19:46
(UTC-04:00)

ISS - Visible Passes

Search period start: 02 August 2015 00:00
Search period end: 12 August 2015 00:00
Orbit: 401 x 403 km, 51.6° (Epoch: 02 August)

Date Brightness Start Highest point End Pass type
(mag) Time Alt. Az. Time Alt. Az. Time Alt. Az.
02 Aug -0.2 01:23:02 10° NW 01:24:00 14° NNW 01:24:00 14° NNW visible
02 Aug -1.8 22:51:54 10° W 22:54:57 37° NNW 22:58:02 10° NE visible
03 Aug -0.5 00:29:43 10° NW 00:32:03 18° N 00:32:59 16° NNE visible
03 Aug -2.7 21:58:38 10° WSW 22:01:51 60° NNW 22:05:06 10° NE visible
03 Aug -0.6 23:36:16 10° WNW 23:38:47 20° N 23:41:17 10° NE visible
04 Aug -0.1 01:13:34 10° NW 01:14:22 14° NNW 01:14:22 14° NNW visible
04 Aug -1.0 22:42:46 10° WNW 22:45:32 24° NNW 22:48:17 10° NE visible
05 Aug -0.6 00:20:26 10° NW 00:22:45 18° N 00:23:06 17° NNE visible
05 Aug -1.5 21:49:19 10° W 21:52:19 33° NNW 21:55:20 10° NE visible
05 Aug -0.5 23:27:08 10° NW 23:29:26 18° N 23:31:45 10° NE visible
06 Aug -0.1 01:03:53 10° NW 01:04:22 13° NW 01:04:22 13° NW visible
06 Aug -0.6 22:33:41 10° WNW 22:36:08 19° N 22:38:35 10° NE visible
07 Aug -0.7 00:10:52 10° NW 00:13:03 20° N 00:13:03 20° N visible
07 Aug -0.9 21:40:09 10° WNW 21:42:51 23° NNW 21:45:32 10° NE visible
07 Aug -0.7 23:17:45 10° NW 23:20:05 18° N 23:21:42 13° NE visible
08 Aug 0.0 00:54:04 10° NW 00:54:18 12° NW 00:54:18 12° NW visible
08 Aug -0.6 22:24:27 10° NW 22:26:45 17° N 22:29:02 10° NE visible
09 Aug -0.9 00:01:05 10° NW 00:02:58 23° NNW 00:02:58 23° NNW visible
09 Aug -0.7 21:31:01 10° NW 21:33:24 19° N 21:35:48 10° NE visible
09 Aug -1.2 23:08:04 10° NW 23:10:39 21° NNE 23:11:38 19° NE visible
10 Aug -0.8 22:14:56 10° NW 22:17:19 18° N 22:19:42 10° NE visible
10 Aug -1.0 23:51:12 10° NW 23:52:53 25° NNW 23:52:53 25° NNW visible
11 Aug -0.8 21:21:40 10° NW 21:23:57 17° N 21:26:14 10° NE visible
11 Aug -1.8 22:58:12 10° NW 23:01:07 29° NNE 23:01:35 28° NE visible
